Regional Weather Roundup
Issued by NWS State College, PA

Home | Current Version | Previous Version | Text Only | Print | Product List | Glossary On
Versions: 1 2 3 4 5 6 7 8 9 10 11 12 13 14 15 16 17 18 19 20 21 22 23 24 25 26 27 28 29 30 31 32 33 34 35 36 37 38 39 40 41 42 43 44 45 46 47 48 49 50
000
ASUS41 KCTP 210010
RWRCTP

REGIONAL WEATHER ROUNDUP
NATIONAL WEATHER SERVICE STATE COLLEGE PA
800 PM EDT MON OCT 20 2014

Note: "fair" indicates few or no clouds below 12,000 feet with no
significant weather and/or obstructions to visibility.

* = STATION THAT DOES NOT REPORT PRECIPITATION /E.G. RAIN...SNOW...ETC/
    THUNDER OR FOG.

PAZ002>004-007>009-013>016-020>023-029>032-210100-
WESTERN PENNSYLVANIA

CITY           SKY/WX    TMP DP  RH WIND       PRES   REMARKS
ERIE           LGT RAIN  52  45  77 S10       29.83R
MEADVILLE      LGT RAIN  50  44  80 S8        29.85R
FRANKLIN*      CLOUDY    48  43  81 S10       29.88R
NEW CASTLE     LGT RAIN  49  48  96 CALM      29.89R FOG
BEAVER COUNTY  LGT RAIN  50  46  87 S3        29.88R
BUTLER*        CLOUDY    50  43  76 S5        29.90S
PITTSBURGH INT CLOUDY    54  42  64 S5        29.88S
PITTSBURGH     CLOUDY    53  39  59 S7        29.89S
INDIANA*       CLOUDY    52  41  66 CALM      29.94S
LATROBE        MOCLDY    54  43  66 S5        29.91S
WASHINGTON CO* PTCLDY    52  41  66 CALM      29.91S
$$

PAZ004>006-010>012-017>019-024>028-033>037-041-042-045-046-049>053-210100-
CENTRAL PENNSYLVANIA

CITY           SKY/WX    TMP DP  RH WIND       PRES   REMARKS
BRADFORD       CLOUDY    50  39  66 S5        29.87S
DUBOIS         CLOUDY    50  40  68 SW7       29.88R
CLEARFIELD     CLOUDY    51  39  63 S3        29.90R
JOHNSTOWN      CLOUDY    51  34  52 SW8       29.91S
ALTOONA        CLOUDY    50  42  74 SE3       29.92S
STATE COLLEGE  MOCLDY    52  37  58 SW5       29.91R
WILLIAMSPORT   CLOUDY    56  36  47 CALM      29.90S
SELINSGROVE    CLOUDY    57  40  52 S6        29.93R
FT INDIANTOWN  CLOUDY    53  51  94 N2        29.95S
CAPITAL CITY   CLOUDY    57  43  59 E5        29.94S
HARRISBURG     CLOUDY    57  45  64 S5        29.93F
YORK           CLOUDY    53  46  77 CALM      29.94F
$$

PAZ038>040-043-044-047-048-054-055-060>062-067>071-210100-
EASTERN PENNSYLVANIA

CITY           SKY/WX    TMP DP  RH WIND       PRES   REMARKS
SCRANTON       CLOUDY    55  39  54 S7        29.91F
MOUNT POCONO   CLOUDY    50  39  66 S7        29.94S
ALLENTOWN      CLOUDY    56  38  50 S3        29.96S
QUAKERTOWN*    PTCLDY    48  41  76 CALM      29.97F
READING        CLOUDY    57  42  57 CALM      29.94F
LANCASTER      MOCLDY    55  44  66 S3        29.95S
COATESVILLE    MOCLDY    50  45  81 CALM      29.97S
POTTSTOWN      MOCLDY    48  41  76 CALM      29.97F
BLUE BELL      PTCLDY    46  43  87 CALM      29.96S
DOYLESTOWN     PTCLDY    48  41  76 CALM      29.96S
WILLOW GROVE   NOT AVBL
NORTH PHILA    CLEAR     51  39  63 CALM      29.99S
PHILADELPHIA   MOCLDY    57  45  64 S7        29.98S
$$


USA.gov is the U.S. government's official web portal to all federal, state and local government web resources and services.